Alexandria, MN

10:10 PM CDT on July 24, 2016 (GMT -0500)
Chandler

Weather History for KAXN - February, 2013

Change the Weather History Date:

Tuesday, February 5, 2013

  Actual Average Record
Temperature  
Mean Temperature 14 °F -  
Max Temperature 26 °F 18 °F 49 °F (1991)
Min Temperature 1 °F 0 °F -27 °F (1982)
Degree Days  
Heating Degree Days 52    
Moisture  
Dew Point 14 °F    
Average Humidity 81    
Maximum Humidity 88    
Minimum Humidity 71    
Precipitation  
Precipitation 0.01 in - - ()
Sea Level Pressure  
Sea Level Pressure 29.82 in    
Wind  
Wind Speed 13 mph (WNW)    
Max Wind Speed 20 mph    
Max Gust Speed 24 mph    
Visibility 8 miles    
Events Snow    
Averages and records for this station are not official NWS values.
T = Trace of Precipitation, MM = Missing Value Source: NWS Daily Summary

Daily Weather History Graph

Daily Weather History Graph

Search for Another Location

Airport or City:

Trip Planner

Search our weather history database for the weather conditions in past years. The results will help you decide how hot, cold, wet, or windy it might be!

Date:

Astronomy

Feb. 05, 2013 Rise Set
Actual Time 7:38 AM CST 5:33 PM CST
Civil Twilight 7:06 AM CST 6:05 PM CST
Nautical Twilight 6:31 AM CST 6:40 PM CST
Astronomical Twilight 5:56 AM CST 7:15 PM CST
Moon 3:26 AM CST (2/5) 12:45 PM CST (2/5)
Length of Visible Light 10h 58m
Length of Day
9h 55m
Waning Crescent, 26% of the Moon is Illuminated
Feb 5
Waning Crescent
Feb 10
New
Feb 17
First Quarter
Feb 25
Full
Mar 4
Last Quarter

Hourly Weather History & Observations

Time (CST) Temp. Windchill Dew Point Humidity Pressure Visibility Wind Dir Wind Speed Gust Speed Precip Events Conditions
12:53 AM 17.1 °F 1.5 °F 14.0 °F 88% 29.68 in 7.0 mi SW 17.3 mph - N/A   Clear
1:53 AM 18.0 °F 4.2 °F 14.0 °F 84% 29.68 in 9.0 mi WSW 13.8 mph - N/A   Clear
2:50 AM 23.0 °F 10.1 °F 19.4 °F 86% 29.60 in 1.8 mi West 15.0 mph - 0.00 in Snow Light Snow
2:51 AM 24.1 °F 12.0 °F 19.9 °F 84% 29.69 in 1.8 mi West 13.8 mph - 0.00 in Snow Light Snow
3:09 AM 24.8 °F 12.4 °F 21.2 °F 86% 29.60 in 0.8 mi West 15.0 mph - 0.00 in Snow Light Snow
3:14 AM 24.8 °F 12.4 °F 21.2 °F 86% 29.60 in 1.0 mi West 15.0 mph - 0.01 in Snow Light Snow
3:24 AM 26.6 °F 15.2 °F 23.0 °F 86% 29.60 in 1.8 mi WNW 13.8 mph - 0.01 in Snow Light Snow
3:33 AM 26.6 °F 15.7 °F 23.0 °F 86% 29.59 in 3.0 mi West 12.7 mph - 0.01 in Snow Light Snow
3:53 AM 26.1 °F 14.0 °F 23.0 °F 88% 29.67 in 9.0 mi WNW 15.0 mph - 0.01 in   Overcast
4:14 AM 26.6 °F 14.7 °F 23.0 °F 86% 29.61 in 3.0 mi WNW 15.0 mph - 0.00 in Snow Light Snow
4:21 AM 26.6 °F 15.7 °F 23.0 °F 86% 29.61 in 2.5 mi WNW 12.7 mph - 0.00 in Snow Light Snow
4:28 AM 26.6 °F 15.2 °F 23.0 °F 86% 29.61 in 5.0 mi WNW 13.8 mph - 0.00 in Snow Light Snow
4:53 AM 26.1 °F 13.1 °F 23.0 °F 88% 29.71 in 7.0 mi NW 17.3 mph - 0.00 in   Overcast
5:15 AM 26.6 °F 15.7 °F 23.0 °F 86% 29.64 in 10.0 mi WNW 12.7 mph - N/A   Overcast
5:43 AM 26.6 °F 13.4 °F 23.0 °F 86% 29.65 in 9.0 mi WNW 18.4 mph 24.2 mph N/A   Overcast
5:53 AM 26.1 °F 13.1 °F 23.0 °F 88% 29.74 in 7.0 mi WNW 17.3 mph 24.2 mph N/A   Overcast
6:44 AM 26.6 °F 15.2 °F 21.2 °F 80% 29.67 in 10.0 mi NW 13.8 mph - N/A   Overcast
6:53 AM 26.1 °F 13.1 °F 21.9 °F 84% 29.76 in 10.0 mi NW 17.3 mph - N/A   Overcast
7:02 AM 26.6 °F 13.1 °F 21.2 °F 80% 29.69 in 7.0 mi NW 19.6 mph - N/A   Overcast
7:36 AM 23.0 °F 10.1 °F 17.6 °F 80% 29.71 in 9.0 mi WNW 15.0 mph - N/A   Mostly Cloudy
7:53 AM 21.9 °F 8.7 °F 16.0 °F 78% 29.80 in 10.0 mi NW 15.0 mph - N/A   Clear
9:07 AM 15.8 °F 0.3 °F 10.4 °F 79% 29.79 in 10.0 mi NNW 16.1 mph - N/A   Mostly Cloudy
9:29 AM 15.8 °F 2.7 °F 10.4 °F 79% 29.81 in 10.0 mi NNW 11.5 mph - N/A   Scattered Clouds
9:37 AM 15.8 °F 5.1 °F 10.4 °F 79% 29.82 in 10.0 mi NNW 8.1 mph - N/A   Mostly Cloudy
9:53 AM 15.1 °F 0.5 °F 10.0 °F 80% 29.92 in 10.0 mi NNW 13.8 mph - N/A   Mostly Cloudy
10:11 AM 15.8 °F 2.1 °F 8.6 °F 73% 29.85 in 10.0 mi NW 12.7 mph - N/A   Mostly Cloudy
10:34 AM 15.8 °F 0.9 °F 10.4 °F 79% 29.85 in 10.0 mi NNW 15.0 mph - N/A   Scattered Clouds
10:53 AM 16.0 °F 2.3 °F 10.0 °F 77% 29.95 in 10.0 mi North 12.7 mph - N/A   Clear
11:53 AM 16.0 °F 2.9 °F 9.0 °F 74% 29.98 in 10.0 mi NNW 11.5 mph - N/A   Clear
12:53 PM 17.1 °F 5.8 °F 9.0 °F 71% 29.99 in 10.0 mi NW 9.2 mph - N/A   Clear
1:53 PM 17.1 °F 5.8 °F 9.0 °F 71% 30.01 in 10.0 mi WNW 9.2 mph - N/A   Clear
2:53 PM 14.0 °F 0.5 °F 7.0 °F 74% 30.02 in 10.0 mi West 11.5 mph - N/A   Clear
3:53 PM 12.9 °F 0.7 °F 5.0 °F 71% 30.03 in 10.0 mi West 9.2 mph - N/A   Clear
4:53 PM 10.0 °F -5.2 °F 3.0 °F 73% 30.07 in 10.0 mi WNW 12.7 mph - N/A   Clear
5:53 PM 6.1 °F -4.3 °F 1.0 °F 80% 30.08 in 10.0 mi WNW 5.8 mph - N/A   Clear
6:53 PM 3.9 °F -6.9 °F -0.9 °F 80% 30.09 in 10.0 mi NW 5.8 mph - N/A   Clear
7:53 PM 1.0 °F -11.7 °F -2.9 °F 83% 30.11 in 10.0 mi WSW 6.9 mph - N/A   Scattered Clouds
8:53 PM 5.0 °F - 1.0 °F 84% 30.11 in 10.0 mi Calm Calm - N/A   Overcast
9:53 PM 7.0 °F - 1.9 °F 80% 30.10 in 10.0 mi Calm Calm - N/A   Overcast
10:53 PM 9.0 °F - 3.0 °F 77% 30.09 in 10.0 mi Calm Calm - N/A   Overcast
11:53 PM 9.0 °F - 3.9 °F 80% 30.11 in 10.0 mi Calm Calm - N/A   Overcast